Starlink 34624

operational
NORAD ID: 64805 Int'l Des: 2025-150 Owner: SPXS Country: US Constellation: starlink
LEOCIRCULAR

Starlink 34624について

説明を読み込み中...

リアルタイム位置

3D地球を読み込み中...

次回通過

高度履歴

Altitude vs Time

uPlot chart will show altitude changes over time

軌道要素

1 64805U 25150R 25341.00002315 -.01458006 00000-0 -40870-1 0 9998
2 64805 69.9996 9.2926 0003129 268.0241 112.5902 15.39487988 5916
Epoch: Dec 7, 2025 • Age: 8 hours

現在のステータス

高度 453.1 km
速度 7.64 km/s
衛星直下点 1.19°N, 176.77°E
打ち上げ日 Jul 16, 2025
運用期間 0.3 years
タイプ internet

技術仕様

分類 Payload
質量 575.00 kg
乾燥質量 530.00 kg
総質量 575.00 kg
長さ 0.30 m
直径 4.10 m
スパン 29.00 m
形状 Box + pan
製造者 SPXS
バスタイプ Starlink V2MO
フェーズステータス In Orbit
所有者/国 SPXS/US

大規模コンステレーション

Loading constellations...